TimeEDT,TemperatureF,Dew PointF,Humidity,Sea Level PressureIn,VisibilityMPH,Wind Direction,Wind SpeedMPH,Gust SpeedMPH,PrecipitationIn,Events,Conditions,WindDirDegrees,DateUTC
12:07 AM,71.6,69.8,94,29.98,7.0,Calm,Calm,-,N/A,,Mostly Cloudy,0,2013-06-17 04:07:00
12:36 AM,69.8,69.8,100,29.98,2.0,Calm,Calm,-,N/A,,Clear,0,2013-06-17 04:36:00
12:52 AM,69.8,69.8,100,29.98,4.0,Calm,Calm,-,N/A,,Scattered Clouds,0,2013-06-17 04:52:00
12:54 AM,70.0,70.0,100,29.98,4.0,Calm,Calm,-,N/A,,Mostly Cloudy,0,2013-06-17 04:54:00
1:28 AM,69.8,69.8,100,29.98,1.8,Calm,Calm,-,N/A,,Partly Cloudy,0,2013-06-17 05:28:00
1:36 AM,69.8,69.8,100,29.98,1.0,Calm,Calm,-,N/A,,Clear,0,2013-06-17 05:36:00
1:44 AM,69.8,69.8,100,29.98,2.0,Calm,Calm,-,N/A,,Scattered Clouds,0,2013-06-17 05:44:00
1:54 AM,70.0,70.0,100,29.98,2.5,Calm,Calm,-,N/A,,Mostly Cloudy,0,2013-06-17 05:54:00
2:18 AM,71.6,69.8,94,29.98,6.0,WSW,3.5,-,N/A,,Mostly Cloudy,240,2013-06-17 06:18:00
2:54 AM,73.0,70.0,90,29.98,7.0,SW,3.5,-,N/A,,Scattered Clouds,230,2013-06-17 06:54:00
3:54 AM,73.0,70.0,90,29.97,7.0,Calm,Calm,-,0.01,,Scattered Clouds,0,2013-06-17 07:54:00
4:54 AM,72.0,68.0,87,29.98,8.0,SSW,5.8,-,N/A,,Overcast,200,2013-06-17 08:54:00
5:54 AM,71.1,66.9,87,29.98,9.0,SSW,4.6,-,0.00,,Scattered Clouds,200,2013-06-17 09:54:00
6:54 AM,71.1,66.9,87,30.00,7.0,SW,4.6,-,0.00,Rain,Light Rain,220,2013-06-17 10:54:00
7:54 AM,69.1,66.9,93,30.00,6.0,SSW,6.9,-,0.04,Rain,Light Rain,210,2013-06-17 11:54:00
8:54 AM,70.0,68.0,93,30.01,5.0,SSW,3.5,-,0.00,,Mostly Cloudy,210,2013-06-17 12:54:00
9:54 AM,71.1,69.1,93,30.00,6.0,SSW,6.9,-,N/A,,Scattered Clouds,210,2013-06-17 13:54:00
10:54 AM,73.9,68.0,82,29.99,10.0,SW,9.2,-,N/A,,Partly Cloudy,220,2013-06-17 14:54:00
11:54 AM,75.9,70.0,82,29.99,8.0,SSW,9.2,-,N/A,,Clear,210,2013-06-17 15:54:00
12:54 PM,78.1,71.1,79,29.98,8.0,WSW,5.8,-,N/A,,Clear,250,2013-06-17 16:54:00
1:54 PM,81.0,71.1,72,29.98,8.0,SSW,6.9,-,N/A,,Partly Cloudy,210,2013-06-17 17:54:00
2:54 PM,84.0,71.1,65,29.95,9.0,South,8.1,-,N/A,,Clear,180,2013-06-17 18:54:00
3:54 PM,84.9,69.1,59,29.93,10.0,South,8.1,-,N/A,,Clear,180,2013-06-17 19:54:00
4:54 PM,84.0,68.0,58,29.92,9.0,South,9.2,-,N/A,,Partly Cloudy,190,2013-06-17 20:54:00
5:54 PM,82.9,68.0,60,29.92,9.0,South,9.2,-,N/A,,Clear,190,2013-06-17 21:54:00
6:54 PM,81.0,69.1,67,29.92,8.0,South,6.9,-,N/A,,Clear,190,2013-06-17 22:54:00
7:54 PM,80.1,70.0,71,29.92,8.0,South,5.8,-,N/A,,Clear,190,2013-06-17 23:54:00
8:54 PM,77.0,70.0,79,29.92,8.0,Calm,Calm,-,N/A,,Clear,0,2013-06-18 00:54:00
9:54 PM,73.9,71.1,91,29.94,7.0,Calm,Calm,-,N/A,,Clear,0,2013-06-18 01:54:00
10:54 PM,73.9,71.1,91,29.96,7.0,Calm,Calm,-,N/A,,Scattered Clouds,0,2013-06-18 02:54:00
11:24 PM,75.2,71.6,89,29.97,8.0,West,6.9,-,N/A,,Overcast,280,2013-06-18 03:24:00
11:54 PM,73.0,69.1,87,29.96,8.0,Calm,Calm,-,N/A,,Scattered Clouds,0,2013-06-18 03:54:00